Location: Unspecified
(0.0000°N, 0.0000°E)
Time: 21:11:09
(UTC+00:00)

CZ-3 Stage 3 - Pass Details

Date: 27 May 2019
Orbit: 501 x 34691 km, 30.5° (Epoch: 16 June)

Event Time Altitude Azimuth Distance (km) Brightness Sun altitude
Rises 03:17:32 0° 311° (NW) 7,629 7.4 -36.7°
Reaches altitude 10° 03:21:00 10° 316° (NW) 7,662 7.4 -35.9°
Maximum altitude 06:47:13 90° 327° (NNW) 32,803 10.9 11.7°
Drops below altitude 10° 12:55:01 10° 134° (SE) 6,251 7.0 64.4°
Sets 12:58:12 0° 125° (SE) 6,269 6.9 64.0°
